• In Uzbekistan
  • List of Countries
  • For 7 days
  • Water Temperature
  • Satellite Maps
  • Weather Map
  • Weather Widgets
  • user-avatar
    Login

    Hourly Weather Yerevan

    Today, 26 March, Sunday

    Time Temperature Precipitation Wind Pressure Humidity
    00:00 +4°C° 0 mm 1 mps 687 mmHg 70%
    01:00 +3°C° 0 mm 1 mps 687 mmHg 69%
    02:00 +3°C° 0 mm 1 mps 687 mmHg 69%
    03:00 +2°C° 0 mm 1 mps 687 mmHg 69%
    04:00 +2°C° 0 mm 1 mps 687 mmHg 68%
    05:00 +2°C° 0 mm 1 mps 687 mmHg 68%
    06:00 +2°C° 0 mm 1 mps 687 mmHg 67%
    07:00 +5°C° 0 mm 1 mps 688 mmHg 63%
    08:00 +7°C° 0 mm 1 mps 688 mmHg 59%
    09:00 +10°C° 0 mm 1 mps 688 mmHg 56%
    10:00 +10°C° 0 mm 2 mps 688 mmHg 54%
    11:00 +12°C° 0 mm 2 mps 688 mmHg 53%
    12:00 +13°C° 0 mm 2 mps 688 mmHg 52%
    13:00 +13°C° 0 mm 2 mps 688 mmHg 51%
    14:00 +14°C° 0 mm 2 mps 687 mmHg 51%
    15:00 +14°C° 0 mm 2 mps 687 mmHg 51%
    16:00 +13°C° 0 mm 2 mps 687 mmHg 54%
    17:00 +12°C° 0 mm 2 mps 688 mmHg 57%
    18:00 +9°C° 0 mm 2 mps 688 mmHg 59%
    19:00 +8°C° 0 mm 2 mps 688 mmHg 61%
    20:00 +7°C° 0 mm 2 mps 688 mmHg 63%
    21:00 +7°C° 0 mm 1 mps 689 mmHg 65%
    22:00 +7°C° 0 mm 1 mps 689 mmHg 66%
    23:00 +6°C° 0 mm 1 mps 689 mmHg 66%

    Tomorrow, 27 March, Monday

    Time Temperature Precipitation Wind Pressure Humidity
    00:00 +6°C° 0 mm 1 mps 689 mmHg 67%
    01:00 +6°C° 0 mm 1 mps 689 mmHg 68%
    02:00 +6°C° 0 mm 1 mps 689 mmHg 68%
    03:00 +6°C° 0 mm 1 mps 689 mmHg 69%
    04:00 +4°C° 0 mm 2 mps 689 mmHg 70%
    05:00 +4°C° 0 mm 2 mps 689 mmHg 71%
    06:00 +4°C° 0 mm 2 mps 688 mmHg 71%
    07:00 +6°C° 0 mm 2 mps 688 mmHg 68%
    08:00 +8°C° 0 mm 3 mps 688 mmHg 64%
    09:00 +10°C° 0 mm 3 mps 688 mmHg 61%
    10:00 +11°C° 0 mm 3 mps 688 mmHg 58%
    11:00 +13°C° 0 mm 3 mps 687 mmHg 56%
    12:00 +14°C° 0 mm 3 mps 687 mmHg 54%
    13:00 +14°C° 0.1 mm 4 mps 687 mmHg 53%
    14:00 +14°C° 0.1 mm 4 mps 687 mmHg 52%
    15:00 +15°C° 0.1 mm 4 mps 686 mmHg 51%
    16:00 +13°C° 0.1 mm 3 mps 686 mmHg 55%
    17:00 +12°C° 0.1 mm 3 mps 686 mmHg 59%
    18:00 +12°C° 0.1 mm 2 mps 686 mmHg 63%
    19:00 +10°C° 0.1 mm 2 mps 686 mmHg 64%
    20:00 +9°C° 0.1 mm 2 mps 687 mmHg 66%
    21:00 +9°C° 0.1 mm 2 mps 687 mmHg 68%
    22:00 +8°C° 0.1 mm 2 mps 687 mmHg 69%
    23:00 +8°C° 0.1 mm 2 mps 687 mmHg 71%

    Day after tomorrow, 28 March, Tuesday

    Time Temperature Precipitation Wind Pressure Humidity
    00:00 +8°C° 0.1 mm 2 mps 687 mmHg 72%
    01:00 +8°C° 0.2 mm 2 mps 686 mmHg 73%
    02:00 +7°C° 0.2 mm 2 mps 686 mmHg 74%
    03:00 +7°C° 0.2 mm 2 mps 686 mmHg 75%
    04:00 +7°C° 0.2 mm 2 mps 686 mmHg 76%
    05:00 +6°C° 0.2 mm 2 mps 687 mmHg 77%
    06:00 +6°C° 0.2 mm 2 mps 687 mmHg 78%
    07:00 +8°C° 0.2 mm 2 mps 687 mmHg 73%
    08:00 +9°C° 0.2 mm 2 mps 687 mmHg 68%
    09:00 +12°C° 0.2 mm 2 mps 688 mmHg 63%
    10:00 +12°C° 0.2 mm 2 mps 688 mmHg 60%
    11:00 +13°C° 0.2 mm 2 mps 688 mmHg 58%
    12:00 +14°C° 0.2 mm 2 mps 688 mmHg 55%
    13:00 +14°C° 0.3 mm 2 mps 688 mmHg 55%
    14:00 +15°C° 0.3 mm 2 mps 688 mmHg 55%
    15:00 +15°C° 0.3 mm 2 mps 687 mmHg 54%
    16:00 +14°C° 0.3 mm 2 mps 688 mmHg 57%
    17:00 +13°C° 0.3 mm 2 mps 688 mmHg 60%
    18:00 +12°C° 0.3 mm 1 mps 688 mmHg 63%
    19:00 +11°C° 0.1 mm 1 mps 688 mmHg 66%
    20:00 +10°C° 0.1 mm 1 mps 689 mmHg 68%
    21:00 +9°C° 0.1 mm 1 mps 689 mmHg 70%
    22:00 +9°C° 0.1 mm 1 mps 689 mmHg 71%
    23:00 +8°C° 0.1 mm 1 mps 689 mmHg 72%

    29 March, Wednesday

    Time Temperature Precipitation Wind Pressure Humidity
    00:00 +8°C° 0.1 mm 1 mps 689 mmHg 72%
    01:00 +8°C° 0 mm 1 mps 689 mmHg 73%
    02:00 +7°C° 0 mm 1 mps 689 mmHg 74%
    03:00 +7°C° 0 mm 1 mps 689 mmHg 75%
    04:00 +7°C° 0 mm 1 mps 689 mmHg 76%
    05:00 +7°C° 0 mm 1 mps 689 mmHg 77%
    06:00 +6°C° 0 mm 1 mps 689 mmHg 78%
    07:00 +8°C° 0 mm 1 mps 689 mmHg 73%
    08:00 +10°C° 0 mm 1 mps 689 mmHg 68%
    09:00 +12°C° 0 mm 2 mps 689 mmHg 62%
    10:00 +13°C° 0 mm 1 mps 690 mmHg 59%
    11:00 +14°C° 0 mm 1 mps 690 mmHg 56%
    12:00 +16°C° 0 mm 1 mps 690 mmHg 52%
    13:00 +16°C° 0 mm 1 mps 689 mmHg 51%
    14:00 +16°C° 0 mm 2 mps 689 mmHg 50%
    15:00 +16°C° 0 mm 2 mps 689 mmHg 50%
    16:00 +15°C° 0 mm 2 mps 689 mmHg 54%
    17:00 +13°C° 0 mm 1 mps 689 mmHg 58%
    18:00 +12°C° 0 mm 1 mps 689 mmHg 62%
    19:00 +11°C° 0 mm 1 mps 690 mmHg 63%
    20:00 +10°C° 0 mm 1 mps 690 mmHg 65%
    21:00 +8°C° 0 mm 1 mps 691 mmHg 67%
    22:00 +8°C° 0 mm 1 mps 691 mmHg 68%
    23:00 +8°C° 0 mm 1 mps 691 mmHg 68%

    30 March, Thursday

    Time Temperature Precipitation Wind Pressure Humidity
    00:00 +8°C° 0 mm 1 mps 691 mmHg 69%
    01:00 +7°C° 0 mm 1 mps 691 mmHg 70%
    02:00 +7°C° 0 mm 1 mps 691 mmHg 71%
    03:00 +7°C° 0 mm 1 mps 691 mmHg 72%
    04:00 +7°C° 0 mm 1 mps 691 mmHg 73%
    05:00 +6°C° 0 mm 1 mps 691 mmHg 74%
    06:00 +6°C° 0 mm 1 mps 692 mmHg 75%
    07:00 +8°C° 0 mm 1 mps 692 mmHg 68%
    08:00 +10°C° 0 mm 1 mps 692 mmHg 61%
    09:00 +13°C° 0 mm 1 mps 693 mmHg 54%
    10:00 +14°C° 0 mm 2 mps 692 mmHg 52%
    11:00 +15°C° 0 mm 2 mps 692 mmHg 50%
    12:00 +16°C° 0 mm 2 mps 692 mmHg 48%
    13:00 +16°C° 0 mm 2 mps 691 mmHg 48%
    14:00 +16°C° 0 mm 2 mps 691 mmHg 48%
    15:00 +17°C° 0 mm 2 mps 690 mmHg 48%
    16:00 +15°C° 0 mm 2 mps 690 mmHg 52%
    17:00 +14°C° 0 mm 2 mps 690 mmHg 56%
    18:00 +13°C° 0 mm 2 mps 689 mmHg 60%
    19:00 +12°C° 0 mm 2 mps 689 mmHg 62%
    20:00 +11°C° 0 mm 1 mps 689 mmHg 65%
    21:00 +9°C° 0 mm 1 mps 689 mmHg 67%
    22:00 +9°C° 0 mm 1 mps 689 mmHg 67%
    23:00 +9°C° 0 mm 1 mps 689 mmHg 67%

    31 March, Friday

    Time Temperature Precipitation Wind Pressure Humidity
    00:00 +9°C° 0 mm 1 mps 689 mmHg 67%
    01:00 +9°C° 0.2 mm 1 mps 688 mmHg 67%
    02:00 +9°C° 0.2 mm 1 mps 688 mmHg 67%
    03:00 +9°C° 0.2 mm 1 mps 688 mmHg 68%
    04:00 +9°C° 0.2 mm 1 mps 688 mmHg 69%
    05:00 +9°C° 0.2 mm 1 mps 687 mmHg 71%
    06:00 +8°C° 0.2 mm 2 mps 687 mmHg 72%
    07:00 +9°C° 0 mm 2 mps 687 mmHg 67%
    08:00 +12°C° 0 mm 2 mps 687 mmHg 63%
    09:00 +14°C° 0 mm 2 mps 688 mmHg 58%
    10:00 +15°C° 0.1 mm 2 mps 687 mmHg 56%
    11:00 +15°C° 0.1 mm 2 mps 687 mmHg 55%
    12:00 +16°C° 0.1 mm 2 mps 687 mmHg 53%
    13:00 +16°C° 0.2 mm 2 mps 686 mmHg 53%
    14:00 +16°C° 0.2 mm 2 mps 686 mmHg 54%
    15:00 +16°C° 0.2 mm 2 mps 685 mmHg 55%
    16:00 +16°C° 0.3 mm 2 mps 685 mmHg 58%
    17:00 +15°C° 0.3 mm 2 mps 685 mmHg 61%
    18:00 +14°C° 0.3 mm 2 mps 685 mmHg 64%
    19:00 +13°C° 0.1 mm 2 mps 685 mmHg 67%
    20:00 +12°C° 0.1 mm 1 mps 685 mmHg 69%
    21:00 +11°C° 0.1 mm 1 mps 685 mmHg 72%
    22:00 +11°C° 0.1 mm 1 mps 685 mmHg 74%
    23:00 +11°C° 0.1 mm 1 mps 684 mmHg 75%
    Show more